This demonstration page uses our WeatherBlox Daily Observations layout. Learn more.

Left ArrowRight Arrow

Hourly Observations for October 1, 2022

Temp ( °F °C ) Dew Point ( °F °C ) Humidity (%) Winds ( mph kmh ) Pressure ( in mb ) Visibility ( mi km ) Precip ( " mm )
12:56 am 00:56 Clear 67 19.4 46 7.8 47 47 SSE 14 22 29.96 1014 10 16 0.00 0.00
1:56 am 01:56 Clear 63 17.2 47 8.3 56 56 SSE 13 20 29.96 1015 10 16 0.00 0.00
2:56 am 02:56 Clear 62 16.7 46 7.8 56 56 S 12 19 29.97 1015 10 16 0.00 0.00
3:56 am 03:56 Clear 58 14.4 46 7.8 65 65 SSE 9 15 29.98 1015 10 16 0.00 0.00
4:56 am 04:56 Clear 54 12.2 45 7.2 71 71 S 5 7 30.00 1016 10 16 0.00 0.00
5:56 am 05:56 Clear 54 12.2 46 7.8 74 74 SSE 12 19 30.00 1016 10 16 0.00 0.00
6:56 am 06:56 Clear 54 12.2 45 7.2 71 71 SSE 12 19 30.01 1016 10 16 0.00 0.00
7:56 am 07:56 Sunny 55 12.8 46 7.8 72 72 SSE 12 19 30.03 1017 10 16 0.00 0.00
8:56 am 08:56 Sunny 59 15 46 7.8 62 62 SSE 15 24 30.04 1017 10 16 0.00 0.00
9:56 am 09:56 Sunny 63 17.2 46 7.8 54 54 SSE 16 26 30.06 1018 10 16 0.00 0.00
10:56 am 10:56 Sunny 69 20.6 46 7.8 44 44 S 18 30 30.06 1018 10 16 0.00 0.00
11:56 am 11:56 Sunny 73 22.8 47 8.3 39 39 SSE 15 24 30.06 1018 10 16 0.00 0.00
12:56 pm 12:56 Sunny 79 26.1 49 9.4 35 35 S 16 26 30.04 1017 10 16 0.00 0.00
1:56 pm 13:56 Sunny 84 28.9 49 9.4 30 30 S 21 33 30.02 1017 10 16 0.00 0.00
2:56 pm 14:56 Sunny 85 29.4 48 8.9 28 28 SSE 22 35 30.01 1016 10 16 0.00 0.00
3:56 pm 15:56 Sunny 85 29.4 48 8.9 28 28 SSE 20 31 30.01 1016 10 16 0.00 0.00
4:56 pm 16:56 Sunny 84 28.9 48 8.9 29 29 SSE 18 30 30.01 1016 10 16 0.00 0.00
5:56 pm 17:56 Sunny 81 27.2 48 8.9 32 32 SSE 18 30 30.02 1017 10 16 0.00 0.00
6:56 pm 18:56 Sunny 76 24.4 46 7.8 35 35 SE 13 20 30.04 1017 10 16 0.00 0.00
7:56 pm 19:56 Clear 71 21.7 46 7.8 41 41 SE 13 20 30.06 1018 10 16 0.00 0.00
8:56 pm 20:56 Clear 69 20.6 44 6.7 40 40 SE 12 19 30.08 1019 10 16 0.00 0.00
9:56 pm 21:56 Clear 67 19.4 43 6.1 42 42 SE 15 24 30.09 1019 10 16 0.00 0.00
10:56 pm 22:56 Clear 64 17.8 43 6.1 46 46 SE 14 22 30.10 1019 10 16 0.00 0.00
11:56 pm 23:56 Clear 62 16.7 41 5 46 46 SSE 10 17 30.11 1020 10 16 0.00 0.00

Powered by AerisWeather